Powrót do katalogu

STARLINK-36228

AktywnyŁącznośćVLEO
NORAD 67096·PAYLOAD·🇺🇸 United States

Wystrzelony Dec 14, 2025 z Vandenberg Space Force Base

Loading…

Następne Przeloty (najbliższe 24 godziny)

TLE

ŚwieżeSource: CelesTrak SupGP

Epoka: Sep 15, 2026, 02:51 UTC

1 67096C 25298X   26258.11923611 -.00042081  00000+0 -35265-2 0  2588
2 67096  69.9996 256.8791 0004237 267.5032 351.5699 14.98348427    16

Śledź STARLINK-36228 w czasie rzeczywistym z AllMySat

Download on the App Store